FW4376 Weather Reports


time (UTC)temp
F
wind
direction
speed
knots
gust
knots
rain 1hr
in
rain 24hr
in
rain mn
in
humidity
%
barometer
mb
20260505031603 72 289 1.7 5.2 0.00 0.00 0.00 76 1006.8
20260505030052 72 106 1.7 6.1 0.00 0.00 0.00 76 1006.9
20260505024559 72 140 1.7 4.3 0.00 0.00 0.00 75 1006.7
20260505023050 73 185 1.7 4.3 0.00 0.00 0.00 75 1006.6
20260505021553 73 120 0.9 7.0 0.00 0.00 0.00 73 1006.6
20260505020049 74 143 1.7 4.3 0.00 0.00 0.00 72 1006.5
20260505014603 75 156 1.7 8.7 0.00 0.00 0.00 71 1006.6
20260505013050 75 91 1.7 7.0 0.00 0.00 0.00 70 1006.4
20260505011556 76 248 1.7 5.2 0.00 0.00 0.00 69 1006.5
20260505010045 76 200 2.6 7.0 0.00 0.00 0.00 68 1006.5
20260505004545 77 262 2.6 8.7 0.00 0.00 0.00 66 1006.6
20260505003045 77 238 2.6 7.8 0.00 0.00 0.00 66 1006.6
20260505001544 78 281 1.7 9.6 0.00 0.00 0.00 65 1006.6
20260505000054 79 90 1.7 14.8 0.00 0.00 0.00 64 1006.7
20260504234547 79 139 3.5 13.0 0.00 0.00 0.00 63 1006.8
20260504233101 79 249 5.2 11.3 0.00 0.00 0.00 62 1006.7
20260504231543 80 198 1.7 8.7 0.00 0.00 0.00 61 1006.9
20260504230039 81 243 5.2 13.0 0.00 0.00 0.00 59 1007.1
20260504224540 81 269 4.3 10.4 0.00 0.00 0.00 59 1007.2
20260504223053 81 175 4.3 16.5 0.00 0.00 0.00 59 1007.1
20260504221536 82 232 4.3 11.3 0.00 0.00 0.00 58 1007.3
20260504220032 82 326 3.5 11.3 0.00 0.00 0.00 57 1007.4
20260504214531 81 71 3.5 11.3 0.00 0.00 0.00 57 1007.7
20260504213040 82 245 3.5 13.0 0.00 0.00 0.00 58 1008.0
20260504211532 81 127 5.2 14.8 0.00 0.00 0.00 55 1008.4
20260504210024 81 195 3.5 12.2 0.00 0.00 0.00 55 1008.6
20260504204535 81 144 4.3 14.8 0.00 0.00 0.00 54 1008.9
20260504203024 82 301 3.5 11.3 0.00 0.00 0.00 54 1009.1
20260504201518 81 236 6.1 14.8 0.00 0.00 0.00 53 1009.5
20260504200015 81 205 4.3 10.4 0.00 0.00 0.00 54 1009.8
20260504194513 81 252 5.2 13.0 0.00 0.00 0.00 53 1010.1
20260504193010 80 239 3.5 12.2 0.00 0.00 0.00 54 1010.3
20260504191509 81 228 3.5 10.4 0.00 0.00 0.00 52 1010.6
20260504190006 80 112 6.1 16.5 0.00 0.00 0.00 50 1010.5
20260504184504 79 274 2.6 18.2 0.00 0.00 0.00 51 1010.7
20260504183002 79 244 5.2 14.8 0.00 0.00 0.00 50 1011.1
20260504181603 78 263 3.5 9.6 0.00 0.00 0.00 51 1011.1
20260504180058 79 121 3.5 12.2 0.00 0.00 0.00 51 1011.2
20260504174604 78 209 2.6 13.9 0.00 0.00 0.00 53 1011.5
20260504173052 77 167 4.3 13.0 0.00 0.00 0.00 52 1011.9
20260504171552 76 220 4.3 14.8 0.00 0.00 0.00 52 1012.3
20260504081532 63 233 2.6 7.0 0.00 0.00 0.00 67 1013.9
20260504050007 66 128 0.0 3.5 0.00 0.00 0.00 62 1016.0
20260504044513 66 155 0.0 3.5 0.00 0.00 0.00 61 1016.1
20260504043009 67 149 0.9 3.5 0.00 0.00 0.00 61 1016.1
20260504041505 66 250 0.9 3.5 0.00 0.00 0.00 62 1016.0
20260504040005 66 221 0.9 3.5 0.00 0.00 0.00 62 1016.1
20260504034504 66 127 0.0 3.5 0.00 0.00 0.00 63 1016.1
20260504033007 66 141 0.0 1.7 0.00 0.00 0.00 63 1016.1